Temperature
24 23 22 21 21 20 20 20 20 20 20 19 19 19 19 19 18 18 18 18 18 18 18 18 18 18 18 18 18 17 17 18 18 18 18 18 18 18 18 18 18 17 17
24 23 22 21 21 21 20 20 20 20 20 20 19 19 19 19 18 18 18 18 18 18 18 18 18 18 18 18 17 17 17 18 18 18 19 19 19 18 18 18 18 17 17
25 23 22 22 21 21 21 20 20 20 20 20 19 19 19 19 19 18 18 18 18 18 18 18 18 18 17 18 17 17 17 18 18 18 18 19 20 19 19 18 18 17 17
25 24 22 22 21 21 21 21 20 20 20 20 19 19 19 19 19 18 18 18 18 18 18 18 18 18 17 18 17 17 17 17 17 18 17 18 18 18 19 18 18 17 17
25 24 23 22 21 21 21 21 20 20 20 20 19 19 19 19 18 18 18 18 18 18 18 18 18 18 17 17 17 17 17 17 17 17 17 17 17 18 18 18 18 18 18
25 24 23 22 21 21 21 20 20 20 20 20 19 19 19 19 18 18 18 18 18 18 18 18 18 17 17 17 17 17 17 17 17 17 17 17 17 18 18 18 18 18 17
25 24 23 22 21 21 21 20 20 20 20 20 19 19 19 19 18 18 18 18 18 18 18 18 17 17 17 17 17 17 17 17 17 17 17 17 17 17 17 17 18 17 17
25 24 23 22 21 21 21 20 20 20 20 20 19 19 19 18 18 18 18 18 18 18 18 18 17 17 17 17 17 17 17 17 17 17 17 17 17 17 17 17 17 18 18
25 24 23 22 22 21 21 21 20 20 20 19 19 19 19 18 18 18 18 18 18 18 18 17 17 17 17 17 17 17 17 17 17 16 16 16 17 17 17 17 17 17 18
25 24 24 23 22 22 21 21 20 20 20 19 19 19 19 19 18 18 18 18 18 18 17 17 17 17 17 17 17 17 17 17 17 16 16 16 16 17 16 16 16 17 17
25 24 24 23 22 21 21 20 20 20 19 19 19 19 18 18 18 18 18 18 18 18 17 17 17 17 17 17 17 16 16 16 16 16 16 16 16 16 16 16 16 16 16
25 24 23 22 22 21 21 20 20 20 19 19 19 18 18 18 18 18 18 18 18 17 17 17 17 16 16 16 16 16 16 16 16 16 16 15 16 16 16 16 16 16 16
24 23 22 22 21 21 21 20 20 20 19 19 19 18 18 18 18 18 17 17 17 17 17 17 16 16 16 16 16 16 16 16 15 15 15 15 15 15 15 15 15 15 16
23 23 22 21 21 20 20 20 20 20 19 19 18 18 18 18 17 17 17 17 17 17 17 16 16 16 16 16 16 16 15 15 15 15 15 15 15 15 15 15 15 15 15
22 22 21 20 20 20 19 19 19 19 19 19 19 18 18 18 17 17 17 17 17 16 16 16 16 16 16 16 16 16 15 15 15 15 15 15 15 15 15 15 15 15 15
22 21 21 20 20 19 19 19 19 19 18 18 18 18 18 18 17 17 17 17 17 17 16 16 16 16 16 16 16 15 15 15 15 15 15 15 15 15 15 15 15 14 14
21 21 21 20 19 19 19 19 19 18 18 18 18 18 18 17 17 17 17 16 16 16 16 16 15 15 15 15 15 15 15 15 15 14 14 14 14 14 14 14 14 14 14
21 20 20 20 19 19 19 19 18 18 18 18 18 17 17 17 17 16 16 16 16 16 16 16 15 15 15 15 15 15 15 14 14 14 14 14 14 14 14 14 13 13 14
20 20 20 20 19 19 19 18 18 18 18 18 17 17 17 17 17 16 16 16 16 16 15 15 15 15 15 15 15 14 14 14 14 14 14 14 14 14 13 13 13 13 13
19 19 19 19 19 18 18 18 18 18 17 17 17 17 17 17 16 16 16 16 15 15 15 15 15 15 15 14 14 14 14 14 14 14 14 14 13 13 13 13 13 13 13
18 18 18 18 18 18 18 18 17 17 17 17 17 17 17 16 16 16 16 15 15 15 15 14 15 15 14 14 14 14 13 13 13 13 13 13 13 13 13 13 13 12 12
18 18 18 18 17 17 17 17 17 17 17 16 16 16 16 16 16 15 15 15 15 14 14 14 14 14 14 14 14 14 13 13 13 13 13 13 13 13 13 13 12 12 12
18 17 17 17 17 17 17 17 17 16 16 16 16 16 16 15 15 15 15 14 14 14 14 14 14 14 14 14 14 13 13 13 13 12 12 12 13 12 12 12 12 12 12
17 17 17 17 16 16 16 16 16 16 16 16 15 15 15 15 15 14 14 14 14 14 14 14 14 14 13 13 13 13 13 12 12 12 12 12 12 12 12 12 11 11 11
17 16 16 16 16 16 16 16 16 16 16 15 15 15 15 15 15 14 14 14 14 14 13 13 13 13 13 13 13 13 12 12 12 12 12 12 12 12 11 11 11 11 11
16 16 16 16 16 16 16 16 16 15 15 15 15 15 15 14 14 14 14 14 14 14 14 13 13 13 13 13 13 13 12 12 12 12 12 11 11 11 11 11 11 10 10
Wind_Speed
7 7 7 7 7 7 7 6 5 5 4 4 4 3 3 2 2 2 2 1 1 1 1 0 1 1 0 1 1 1 2 2 1 3 2 2 3 3 3 3 2 2 2
8 8 8 7 8 8 7 7 6 6 5 4 3 2 2 2 2 1 2 1 1 1 2 1 1 1 1 2 1 2 2 1 1 3 3 2 3 3 2 2 2 2 2
8 9 8 8 8 8 8 6 6 6 5 5 4 3 3 2 2 2 2 1 1 1 1 1 1 1 2 1 2 2 3 2 2 2 3 2 1 1 2 2 2 2 2
8 9 9 9 8 8 7 7 6 6 5 5 4 4 3 2 1 1 1 1 1 1 1 1 1 2 2 2 3 2 2 3 3 2 2 3 3 3 1 1 1 1 2
8 9 9 9 8 8 7 7 6 6 5 5 5 4 3 2 2 1 1 1 1 1 1 1 2 2 2 2 3 2 3 3 3 3 2 3 3 4 4 2 2 2 1
8 8 9 8 8 8 7 7 7 6 6 6 5 4 4 3 2 1 1 2 1 1 1 2 2 2 2 2 3 3 3 3 3 4 3 3 3 3 3 4 4 3 2
8 9 9 9 9 8 8 8 7 6 6 6 5 5 4 4 3 3 2 2 1 1 1 1 2 2 2 2 3 3 3 3 3 4 4 4 4 3 4 4 4 4 3
9 9 9 9 9 9 8 8 8 7 6 6 5 4 4 4 3 2 2 2 1 1 1 2 2 2 2 3 3 3 3 3 4 4 4 4 4 4 4 5 5 4 4
8 9 9 9 8 9 8 8 8 7 6 6 5 4 4 3 2 2 3 2 2 1 1 2 2 2 2 2 3 2 3 3 4 4 4 4 4 4 4 5 5 5 5
8 8 8 9 8 8 8 8 8 7 6 6 5 4 4 3 3 3 2 2 2 1 2 2 2 2 2 2 3 3 2 3 3 3 4 4 4 4 4 4 5 5 6
7 8 8 8 8 8 8 8 8 8 6 5 4 4 3 3 3 3 2 2 2 2 2 2 2 2 2 2 3 3 2 3 3 3 3 4 5 4 4 4 5 5 5
6 7 8 8 8 8 8 8 8 8 7 6 5 4 3 3 3 3 3 3 3 3 3 3 3 3 3 2 3 3 3 3 4 4 4 4 4 4 5 4 5 4 4
6 7 7 7 7 7 7 7 7 7 7 6 6 5 4 4 3 3 3 3 3 3 3 3 3 3 3 3 3 3 4 4 4 4 4 5 4 5 4 5 5 5 4
5 6 6 6 6 6 6 6 6 6 6 6 6 6 5 5 4 4 4 3 3 3 3 3 3 3 3 3 3 3 4 4 4 4 4 4 4 5 5 5 5 5 5
5 5 5 5 6 6 6 5 5 5 5 5 5 5 5 4 4 4 4 4 4 4 3 3 3 3 3 2 2 3 3 4 4 4 4 4 4 5 5 5 5 5 5
4 4 4 5 5 5 5 4 4 4 5 5 4 4 4 4 4 5 4 4 4 4 4 4 4 4 3 2 2 4 4 4 4 5 5 4 3 3 4 4 5 6 5
4 4 3 3 4 4 4 4 4 4 5 4 4 4 4 5 5 5 4 4 4 4 4 4 4 4 2 1 2 4 5 5 4 5 5 5 3 3 4 4 5 5 5
3 3 3 2 3 4 4 3 3 4 4 4 4 4 5 5 5 5 5 5 5 4 4 5 5 4 3 2 2 3 5 4 4 5 5 5 5 4 4 5 4 4 4
3 2 2 2 2 2 4 5 4 4 4 4 4 4 5 5 4 5 5 5 5 4 4 4 4 4 3 2 2 3 4 4 4 4 4 5 5 2 4 4 4 4 3
3 2 2 2 2 1 2 4 4 4 4 4 4 4 4 5 5 5 5 4 4 4 5 4 4 4 4 2 2 3 4 3 4 4 4 2 2 1 2 3 3 3 3
2 2 1 1 1 1 2 3 4 4 4 4 4 4 4 5 5 4 4 4 4 4 4 4 4 4 3 3 3 2 3 4 4 4 3 1 2 1 2 4 3 3 3
1 1 1 0 0 1 2 3 3 3 3 3 4 4 5 5 4 4 4 4 4 4 4 4 4 4 3 3 3 4 4 6 4 4 3 1 2 2 3 2 1 2 3
0 0 1 1 1 1 2 3 2 2 3 4 4 5 5 5 5 5 5 5 5 5 5 4 4 4 3 3 5 6 6 5 4 3 2 0 2 3 3 3 3 3 2
1 1 1 1 1 2 2 2 2 3 4 4 5 5 5 5 4 4 5 5 5 5 5 5 4 4 3 2 2 3 3 5 4 2 1 4 4 2 1 1 2 2 2
2 2 2 2 2 2 2 2 2 3 4 4 4 5 5 4 4 4 3 4 4 4 4 4 4 4 3 1 1 2 2 2 2 2 2 1 1 1 1 1 1 1 1
3 3 3 3 2 2 2 2 2 2 3 4 4 4 4 4 4 4 3 1 2 3 3 3 4 3 1 2 1 2 3 3 3 3 2 2 2 2 2 2 2 1 2
Wind_Direction
174 170 174 174 171 170 171 173 174 173 177 170 173 173 164 159 145 141 123 130 142 154 203 211 153 233 246 267 251 268 237 247 275 277 257 221 212 212 215 229 243 217 217
175 173 178 177 176 174 175 176 179 179 183 171 173 171 169 166 152 144 125 150 171 213 194 201 249 243 235 241 258 262 282 278 261 287 289 248 197 191 205 218 225 248 231
185 179 181 180 178 179 181 181 181 181 182 179 177 170 169 180 168 167 172 175 185 206 239 229 268 281 268 265 260 250 250 271 274 281 289 297 300 299 178 202 223 235 242
188 181 179 180 182 183 179 178 179 180 178 184 188 193 190 192 182 184 173 186 201 218 229 235 238 262 276 280 266 251 263 264 277 266 274 295 314 289 267 205 195 230 237
182 178 177 177 179 179 176 173 174 179 181 185 184 199 204 197 187 178 171 218 195 217 237 233 237 238 254 271 282 287 272 266 275 280 275 271 262 258 271 275 270 244 239
176 172 170 167 171 172 175 174 174 180 183 186 189 198 200 201 200 207 210 226 210 212 215 232 249 251 259 263 262 266 252 269 284 286 279 270 273 271 268 268 263 262 257
173 170 170 170 173 175 178 178 176 179 183 187 194 199 203 204 208 225 215 247 242 234 218 259 261 269 262 264 266 257 272 259 260 268 273 273 275 275 271 268 269 268 264
175 173 173 174 176 177 178 179 179 179 180 185 191 197 202 213 208 216 241 226 252 250 222 243 255 271 275 270 261 259 259 264 265 269 271 267 270 273 268 268 272 271 264
176 174 173 176 177 177 178 180 178 177 179 181 182 187 193 209 209 205 219 214 219 232 216 237 252 268 267 270 269 269 272 276 269 267 256 259 268 267 272 269 266 269 271
175 172 171 174 176 175 175 176 176 176 175 176 185 178 183 196 207 217 212 227 227 239 233 242 256 264 261 261 264 261 269 273 276 278 283 278 275 275 268 267 271 269 269
166 166 165 166 166 165 165 169 171 171 171 172 174 174 176 187 198 198 209 215 223 220 227 240 252 260 267 265 263 269 267 275 287 286 277 276 285 284 277 270 269 265 260
156 158 158 158 162 164 165 168 170 171 171 168 171 172 170 181 200 201 210 215 222 227 227 234 242 252 261 259 257 271 284 281 287 288 288 286 279 278 277 277 271 270 261
145 151 152 157 161 162 164 164 169 168 168 166 171 172 178 187 201 206 208 215 223 232 234 232 242 257 267 265 263 273 280 279 285 288 287 290 290 285 287 282 279 275 264
144 150 151 153 155 157 161 167 173 169 170 172 177 182 193 200 203 207 209 216 221 227 235 240 245 253 262 268 274 272 274 281 288 292 291 291 289 286 287 281 278 277 273
146 149 152 153 157 159 162 169 177 174 177 182 190 197 202 201 206 211 215 218 223 228 230 240 244 253 255 265 284 280 284 287 283 284 288 290 297 312 298 294 292 281 273
149 148 154 158 163 163 164 167 179 180 184 192 199 201 205 206 212 219 218 217 224 232 233 239 246 253 267 45 347 296 287 281 281 285 285 278 270 277 266 283 296 293 279
150 153 158 167 173 171 169 176 184 185 190 197 205 209 211 213 219 224 219 222 227 231 236 241 245 251 260 180 264 284 281 277 278 280 282 284 289 278 285 266 245 255 261
145 149 158 172 180 176 177 181 191 190 198 205 213 217 218 222 224 224 228 229 233 235 238 242 245 252 253 182 241 277 267 274 274 273 272 276 285 291 297 288 285 287 285
136 145 166 174 175 183 178 179 193 195 203 209 217 220 221 223 222 225 230 232 233 236 243 244 243 246 247 181 215 264 265 266 273 275 274 276 280 334 322 287 285 287 281
129 142 162 156 152 176 189 193 200 205 218 224 227 224 224 224 225 229 233 235 234 235 241 242 243 246 252 179 183 250 262 269 275 270 267 272 292 38 328 287 282 283 294
114 128 145 141 132 179 206 217 217 223 229 230 230 226 226 228 227 228 228 224 229 234 240 243 247 246 245 173 163 234 261 276 276 279 277 292 110 59 305 293 287 295 298
127 142 152 184 145 219 224 232 238 246 237 232 232 231 229 231 225 222 221 221 226 228 231 236 244 239 228 208 188 200 254 295 277 283 289 1 142 236 264 272 297 282 269
42 233 211 221 244 258 256 254 263 256 241 232 230 232 229 226 221 220 220 219 223 234 233 232 238 239 229 196 181 201 228 261 269 294 10 54 206 231 235 212 210 230 256
288 273 246 253 270 276 271 271 269 252 236 233 233 232 230 228 222 226 222 223 225 231 238 240 241 237 231 230 209 214 217 215 234 264 196 187 208 241 302 241 227 250 298
289 279 267 264 275 292 289 283 276 255 240 239 238 238 233 228 227 226 233 230 227 228 237 245 245 242 237 252 351 270 256 258 241 237 234 248 242 248 272 286 295 299 299
272 269 267 268 272 282 283 281 269 255 244 239 241 244 239 229 229 223 217 75 223 177 201 237 251 255 248 155 184 242 261 263 232 228 226 243 258 270 280 281 277 275 291
Height
1519 1521 1522 1524 1525 1525 1526 1527 1528 1529 1529 1530 1531 1532 1534 1535 1535 1536 1536 1536 1536 1537 1537 1537 1537 1537 1537 1537 1537 1537 1537 1537 1536 1537 1536 1536 1535 1535 1535 1535 1535 1535 1534
1517 1519 1521 1522 1523 1524 1525 1526 1527 1528 1529 1530 1531 1532 1533 1534 1535 1535 1535 1536 1536 1536 1537 1536 1537 1537 1536 1536 1536 1536 1536 1537 1536 1536 1535 1535 1535 1534 1534 1534 1534 1533 1533
1514 1517 1519 1520 1522 1523 1524 1526 1526 1527 1528 1530 1531 1532 1533 1534 1534 1535 1535 1535 1535 1536 1536 1535 1536 1535 1536 1536 1535 1535 1535 1535 1535 1535 1535 1534 1533 1533 1533 1532 1532 1532 1532
1512 1515 1517 1519 1520 1522 1523 1524 1526 1527 1528 1529 1531 1532 1532 1533 1534 1534 1534 1534 1534 1534 1534 1534 1534 1534 1535 1534 1534 1535 1534 1534 1534 1534 1533 1534 1533 1533 1532 1532 1531 1531 1530
1510 1513 1515 1517 1519 1520 1522 1523 1524 1526 1527 1528 1529 1530 1532 1532 1533 1533 1533 1533 1533 1533 1533 1533 1533 1533 1533 1533 1533 1533 1533 1533 1533 1533 1532 1532 1531 1531 1531 1530 1530 1530 1529
1508 1511 1513 1515 1517 1519 1521 1522 1523 1524 1526 1527 1528 1529 1530 1531 1531 1532 1532 1532 1532 1532 1532 1532 1532 1532 1532 1531 1531 1531 1531 1531 1531 1531 1531 1531 1530 1530 1529 1528 1528 1528 1527
1506 1508 1511 1513 1515 1517 1519 1521 1522 1523 1524 1526 1527 1528 1529 1529 1530 1530 1531 1531 1532 1532 1531 1531 1531 1531 1530 1530 1530 1529 1529 1529 1529 1528 1529 1529 1528 1528 1527 1527 1526 1526 1525
1503 1506 1509 1511 1513 1515 1517 1519 1520 1521 1523 1524 1525 1526 1527 1528 1529 1529 1530 1530 1530 1530 1530 1529 1529 1529 1529 1529 1528 1528 1528 1527 1527 1527 1526 1526 1526 1526 1525 1525 1524 1523 1523
1502 1505 1507 1510 1512 1513 1515 1517 1518 1520 1521 1523 1524 1525 1525 1526 1527 1528 1528 1529 1528 1529 1528 1528 1528 1527 1527 1527 1526 1526 1525 1525 1525 1525 1524 1524 1524 1523 1523 1522 1522 1522 1520
1500 1503 1505 1508 1510 1512 1514 1516 1517 1518 1520 1521 1522 1524 1524 1525 1525 1526 1526 1527 1527 1526 1527 1526 1526 1526 1525 1525 1524 1524 1523 1523 1522 1522 1521 1521 1521 1521 1520 1519 1519 1518 1518
1499 1501 1504 1506 1509 1511 1512 1514 1515 1517 1518 1520 1521 1522 1522 1523 1524 1524 1524 1525 1525 1525 1525 1524 1524 1524 1524 1523 1522 1522 1521 1521 1520 1520 1519 1518 1517 1517 1517 1516 1516 1515 1515
1498 1500 1503 1505 1507 1509 1511 1512 1514 1515 1517 1518 1519 1519 1520 1521 1522 1522 1523 1523 1523 1523 1523 1523 1522 1522 1522 1521 1521 1520 1520 1519 1518 1517 1517 1516 1515 1514 1514 1513 1512 1512 1511
1498 1500 1502 1504 1506 1508 1510 1511 1513 1514 1515 1516 1517 1517 1518 1519 1520 1520 1521 1521 1521 1521 1521 1521 1520 1520 1520 1519 1518 1518 1517 1517 1516 1515 1514 1513 1512 1512 1511 1510 1510 1509 1509
1498 1500 1502 1504 1505 1507 1508 1510 1512 1513 1514 1515 1515 1516 1516 1517 1518 1518 1518 1519 1519 1519 1519 1519 1518 1518 1517 1517 1516 1516 1515 1514 1513 1512 1511 1511 1510 1509 1508 1507 1506 1506 1505
1498 1500 1502 1503 1504 1506 1507 1509 1510 1511 1512 1512 1513 1514 1515 1515 1515 1516 1516 1516 1516 1517 1516 1516 1516 1515 1515 1515 1514 1513 1513 1511 1510 1509 1509 1508 1507 1506 1505 1505 1504 1503 1502
1498 1499 1501 1502 1503 1504 1506 1507 1508 1509 1510 1510 1511 1512 1512 1513 1513 1513 1514 1514 1514 1514 1514 1513 1513 1513 1513 1512 1511 1510 1510 1509 1508 1507 1506 1505 1503 1502 1501 1501 1500 1499 1498
1497 1498 1500 1501 1502 1503 1504 1505 1506 1507 1508 1508 1509 1509 1509 1510 1510 1511 1511 1511 1511 1511 1510 1510 1510 1510 1509 1509 1508 1507 1506 1506 1505 1504 1503 1502 1501 1499 1498 1497 1496 1496 1495
1496 1497 1498 1499 1501 1501 1502 1503 1504 1505 1505 1506 1506 1506 1507 1507 1507 1507 1507 1507 1508 1508 1507 1507 1507 1507 1506 1505 1505 1504 1503 1502 1501 1500 1499 1498 1497 1496 1495 1494 1493 1492 1491
1495 1496 1497 1498 1498 1499 1500 1501 1502 1502 1503 1503 1503 1503 1503 1503 1504 1504 1504 1504 1504 1504 1504 1504 1504 1503 1503 1502 1502 1501 1500 1499 1498 1497 1496 1495 1494 1492 1491 1491 1489 1488 1487
1494 1494 1495 1496 1496 1497 1498 1499 1499 1499 1499 1499 1499 1500 1500 1500 1500 1500 1501 1501 1501 1501 1501 1501 1500 1500 1500 1499 1498 1498 1497 1496 1495 1494 1493 1492 1491 1489 1488 1487 1486 1485 1484
1492 1493 1493 1494 1494 1494 1495 1495 1496 1496 1496 1496 1497 1496 1497 1497 1497 1497 1497 1497 1497 1498 1497 1497 1497 1497 1496 1496 1495 1495 1494 1494 1493 1492 1491 1489 1487 1486 1485 1484 1483 1482 1481
1491 1491 1491 1492 1492 1492 1492 1492 1493 1493 1493 1493 1493 1493 1493 1494 1494 1494 1494 1494 1494 1494 1494 1494 1494 1493 1493 1493 1492 1491 1491 1490 1490 1489 1488 1486 1485 1483 1482 1481 1480 1480 1479
1490 1490 1490 1490 1490 1490 1490 1490 1490 1490 1490 1490 1490 1490 1490 1490 1490 1490 1490 1491 1491 1492 1492 1492 1491 1491 1491 1490 1489 1488 1488 1487 1487 1486 1485 1483 1482 1481 1480 1479 1478 1477 1477
1488 1488 1489 1488 1488 1488 1488 1487 1487 1487 1487 1486 1486 1487 1487 1487 1487 1487 1487 1488 1488 1488 1489 1489 1489 1488 1488 1487 1486 1486 1485 1484 1484 1483 1482 1481 1480 1479 1478 1478 1477 1476 1475
1486 1486 1486 1485 1485 1485 1485 1484 1484 1483 1483 1483 1483 1484 1484 1484 1483 1484 1484 1484 1484 1485 1485 1486 1486 1486 1485 1484 1484 1483 1483 1482 1481 1480 1480 1479 1478 1477 1477 1476 1475 1474 1473
1484 1484 1484 1483 1482 1482 1482 1481 1481 1480 1480 1480 1480 1481 1481 1481 1481 1481 1481 1480 1481 1481 1481 1481 1482 1481 1481 1481 1480 1480 1479 1479 1478 1478 1477 1476 1476 1475 1474 1473 1473 1472 1472